This is the latest recevied weather packets stored in our database for station/object N3WPH. If no packets are shown the sender has not sent any weather packets the latest 10 day(s).
| Time | Temp. | Humidity | Pressure | Rain* | Wind** | Luminosity | Snow |
|---|---|---|---|---|---|---|---|
| 1777673322 | 12.22° C | 60% | 1011 hPa | 0 mm | - | 48 W/m² | - |
| 1777673019 | 12.22° C | 60% | 1011 hPa | 0 mm | - | 40 W/m² | - |
| 1777672715 | 12.22° C | 61% | 1011 hPa | 0 mm | - | 55 W/m² | - |
| 1777672412 | 12.22° C | 61% | 1010.7 hPa | 0 mm | - | 54 W/m² | - |
| 1777672107 | 12.22° C | 62% | 1010.7 hPa | 0 mm | - | 50 W/m² | - |
| 1777671803 | 12.22° C | 60% | 1010.6 hPa | 0 mm | - | 57 W/m² | - |
| 1777671499 | 12.22° C | 60% | 1010.7 hPa | 0 mm | - | 68 W/m² | - |
| 1777671195 | 12.78° C | 58% | 1010.6 hPa | 0 mm | - | 71 W/m² | - |
| 1777670891 | 12.78° C | 61% | 1010.7 hPa | 0 mm | - | 79 W/m² | - |
| 1777670588 | 12.78° C | 59% | 1010.6 hPa | 0 mm | - | 98 W/m² | - |
| 1777670285 | 12.78° C | 60% | 1010.8 hPa | 0 mm | - | 105 W/m² | - |
| 1777669982 | 12.78° C | 61% | 1010.2 hPa | 0 mm | - | 115 W/m² | - |
| 1777669679 | 12.78° C | 62% | 1010.3 hPa | 0 mm | - | 131 W/m² | - |
| 1777669376 | 12.78° C | 58% | 1010.4 hPa | 0 mm | - | 157 W/m² | - |
| 1777669072 | 13.33° C | 60% | 1010.6 hPa | 0 mm | - | 172 W/m² | - |
| 1777668769 | 12.78° C | 60% | 1010.6 hPa | 0 mm | - | 216 W/m² | - |
| 1777668466 | 12.22° C | 61% | 1010.7 hPa | 0 mm | - | 209 W/m² | - |
| 1777668163 | 12.22° C | 58% | 1010.7 hPa | 0 mm | - | 87 W/m² | - |
| 1777667859 | 12.78° C | 56% | 1010.9 hPa | 0 mm | - | 88 W/m² | - |
| 1777667557 | 12.78° C | 51% | 1010.7 hPa | 0 mm | - | 90 W/m² | - |
| 1777667253 | 12.78° C | 53% | 1010.9 hPa | 0 mm | - | 101 W/m² | - |
| 1777666950 | 12.78° C | 54% | 1010.8 hPa | 0 mm | - | 107 W/m² | - |
| 1777666647 | 13.89° C | 52% | 1010.9 hPa | 0 mm | - | 103 W/m² | - |
| 1777666344 | 13.89° C | 45% | 1010.5 hPa | 0 mm | - | 113 W/m² | - |
| 1777666041 | 14.44° C | 45% | 1010.6 hPa | 0 mm | - | 113 W/m² | - |
* Rain latest hour (hover to see other rain measurements)
** Current wind speed in m/s (hover to see current wind gust speed)